Home   Weather   Santa Cruz   Past weeks

Flag for Bolivia Past Weather in Santa Cruz, Bolivia — Yesterday and Last 2 Weeks

Now
68 °F

Clear.


Feels Like: 68 °F
Forecast: 69 / 88 °F
Wind: No wind

Location: Viru-Viru

Current Time: Jul 26, 2017 at 2:50:07 am

Latest Report: Jul 26, 2017 at 2:00 am


Visibility: 6 mi

Pressure: 29.98 "Hg

Humidity: 94%

Dew Point: 66 °F

Location of Santa CruzLocation

Past Weather in Santa Cruz — Graph

°F

Santa Cruz Temperature Yesterday

Maximum temperature yesterday: 91 °F (at 2:00 pm)
Minimum temperature yesterday: 66 °F (at 1:00 am)
Average temperature yesterday: 77 °F

High & Low Weather Summary for the Past Weeks

 TemperatureHumidityPressure
High91 °F (Jul 25, 2:00 pm)100% (Jul 11, 2:00 am)30.45 "Hg (Jul 11, 2:00 am)
Low43 °F (Jul 19, 6:00 am)20% (Jul 19, 4:00 pm)29.77 "Hg (Jul 15, 3:00 pm)
Average68 °F62%30.05 "Hg
* Reported Jul 11 2:00 am — Jul 26 2:00 am, Santa Cruz. Weather by CustomWeather, © 2017

Note: Actual official high and low records may vary slightly from our data, if they occured in-between our weather recording intervals... More about our weather records

Advertising

Santa Cruz Weather History for the Previous 24 Hours

Scroll right to see more
 ConditionsComfort  
Time TempWeatherWind HumidityBarometerVisibility
2:00 am
Wed, Jul 26
68 °FClear.No wind94%29.98 "Hg6 mi
1:00 am70 °FClear.No wind88%29.98 "Hg6 mi
12:00 am70 °FClear.2 mph88%29.98 "Hg5 mi
11:00 pm
Tue, Jul 25
72 °FClear.2 mph83%30.01 "Hg5 mi
10:00 pm72 °FClear.2 mph83%30.01 "Hg5 mi
9:00 pm75 °FClear.2 mph78%30.01 "Hg6 mi
8:00 pm75 °FClear.5 mph69%30.01 "Hg5 mi
7:00 pm79 °FClear.6 mph61%29.98 "Hg5 mi
6:00 pm82 °FPassing clouds.6 mph51%29.98 "Hg6 mi
5:00 pm88 °FPassing clouds.12 mph40%29.98 "HgN/A
4:00 pm90 °FScattered clouds.17 mph41%29.98 "HgN/A
3:00 pm91 °FScattered clouds.16 mph38%29.98 "HgN/A
2:00 pm91 °FPartly sunny.15 mph38%30.01 "HgN/A
1:00 pm90 °FPartly sunny.17 mph43%30.04 "HgN/A
12:00 pm90 °FScattered clouds.17 mph43%30.07 "HgN/A
11:00 am86 °FPartly sunny.12 mph52%30.09 "HgN/A
10:00 am84 °FPassing clouds.8 mph58%30.12 "HgN/A
9:00 am77 °FPassing clouds.6 mph74%30.12 "HgN/A
8:00 am72 °FPassing clouds.2 mph88%30.09 "HgN/A
7:00 am66 °FPassing clouds.3 mph94%30.07 "HgN/A
6:00 am66 °FPassing clouds.2 mph88%30.04 "HgN/A
5:00 am68 °FPassing clouds.3 mph88%30.04 "HgN/A
4:00 am68 °FPassing clouds.5 mph94%30.04 "HgN/A
3:00 am68 °FPassing clouds.5 mph88%30.04 "HgN/A
2:00 am66 °FPassing clouds.3 mph94%30.04 "Hg5 mi
Weather by CustomWeather, © 2017

See weather overviewHow to use our weather pages